Starlink 32416

operational
NORAD ID: 61589 Int'l Des: 2024-187 Owner: SPXS Country: US Constellation: starlink
LEOCIRCULAR

Über Starlink 32416

Beschreibung wird geladen...

Live-Position

3D-Globus wird geladen...

Nächste Überflüge

Höhenverlauf

Altitude vs Time

uPlot chart will show altitude changes over time

Zweizeiliger Elementsatz

1 61589U 24187R 25306.21270503 .00001894 00000-0 57351-4 0 9994
2 61589 53.1618 284.5535 0001426 98.4905 261.6261 15.39610308 59740
Epoch: 2. Nov. 2025 • Age: 31 hours

Aktueller Status

Höhe 452.5 km
Geschwindigkeit 7.65 km/s
Subsatellitenpunkt 51.55°N, 116.09°E
Startdatum 18. Okt. 2024
Alter 1 years
Typ internet

Technische Details

Klassifizierung Payload
Masse 730.00 kg
Trockenmasse 700.00 kg
Gesamtmasse 730.00 kg
Länge 0.30 m
Durchmesser 4.10 m
Spannweite 29.00 m
Form Box + pan
Hersteller SPXS
Bus-Typ Starlink V2M
Phasenstatus In Orbit
Besitzer/Staat SPXS/US

Große Konstellationen

Loading constellations...